Location: Johnson City
(36.3130°N, 82.3540°W)
Time: 06:59:15
(UTC-04:00)

Hubble Space Telescope - Visible Passes

Search period start: 26 September 2017 00:00
Search period end: 06 October 2017 00:00
Orbit: 538 x 541 km, 28.5° (Epoch: 25 September)

Date Brightness Start Highest point End Pass type
(mag) Time Alt. Az. Time Alt. Az. Time Alt. Az.
29 Sep 3.3 06:55:47 10° SSW 06:58:02 14° SSE 07:00:17 10° SE visible
30 Sep 3.1 06:45:06 10° SSW 06:47:46 17° SSE 06:50:27 10° ESE visible
01 Oct 2.9 06:34:33 10° SSW 06:37:31 19° SSE 06:40:30 10° ESE visible
02 Oct 2.7 06:24:13 11° SW 06:27:16 21° SSE 06:30:27 10° ESE visible
03 Oct 2.5 06:14:45 15° SW 06:17:02 23° S 06:20:22 10° ESE visible
04 Oct 2.3 06:05:16 20° SSW 06:06:48 25° S 06:10:14 10° ESE visible
05 Oct 2.1 05:55:45 25° SSW 05:56:34 26° S 06:00:04 10° ESE visible
